COSMOS 1808

Satellite information

Favourite Embed

Satellite Type and Status

PAYLOADIN ORBIT

Key statistics

Satellite COSMOS 1808 at a glance.

Uptime

14082

Days in orbit

Revolutions

≈ 13.7

Per day

Orbit

LEO

Low Earth Orbit

Inclination

82.9

Latest

Satellite identification and parameters

Extended collection of information and parameters for COSMOS 1808.

Object identification

Identified? True

Debris? False

Object name: COSMOS 1808

International designator: 1986-100A

Object number (NORAD): 17239

Object ID (CCSDS): 17239

Country: COMMONWEALTH OF INDEPENDENT STATES (CIS)

Current information (Y/N): Y

RCS size: LARGE

Orbital parameters

Period: 104.94 minutes

Inclination: 82.9337 deg

SMA: 7369.789 km

Apoapsis: 1016.741 km

Periapsis: 966.567 km

RAAN: 66.9854 deg

Eccentricy: 0.003404

Argument of periapsis: 99.505 deg

Mean anomaly: 333.341 deg

Mean motion: 13.72208726 rev/day

Mean motion (dot): 0.00000042 rev/day2

B* drag term: 0.000028663 1/REarth

Two-line elements (TLE)

Creation date: July 6, 2025, 10:46 p.m.

Reference frame: TEME

Reference center: EARTH

Epoch: July 6, 2025, 7:12 p.m. UTC

TLE line 0: 0 COSMOS 1808

TLE line 1: 1 17239U 86100A 25187.80051459 .00000042 00000-0 28663-4 0 9997

TLE line 2: 2 17239 82.9337 66.9854 0034040 99.5050 333.3410 13.72208726930325

Live tracking on map

Real-time ground track for satellite COSMOS 1808.

In-orbit conjunctions

A list of the most updated potential collisions computed for object COSMOS 1808.

Target Orbit TCA Probability of collision Miss distance Type
SL-16 DEB LEO 2025-06-14 13:27:48 0.0004035092 429.0 (m) DEBRIS

Associated space launch

Navigation satellite providing location information for the Tsiklon-B navigation system

COSMOS 1808 was lifted into orbit during the mission ‘Kosmos-3M | Parus 57’, on board a Kosmos-3M space rocket.

The launch took place on Dec. 17, 1986, 5:02 p.m. from 132/1 (132L).

For more information about the launch, click the button.

Launch to space Kosmos-3M | Parus 57
Kosmos-3M | Parus 57

Agency: N/A

Status: Launch Successful

Launch date: Dec. 17, 1986, 5:02 p.m. UTC

Rocket: Kosmos-3M

Launch pad: 132/1 (132L)

Location: Plesetsk Cosmodrome, Russian Federation

...

Latest news about this satellite

There are no fresh news available about this satellite. Check back as we update our databases every day.


Newsletter sign-up

Weekly statistics, charts and insights to help you stay on top of the space industry.